Wind_Speed
12 10 9 8 9 9 8 9 10 10 11 13 14 14 15 15 15 15 14 14 15 13 11 10 9 8 9 10 11 11 12 13 15 16 19 21 21 23 24 23 22 22 20 18 16 16 18 20 21 21 20 18 18 20 20 20 20 19 18 18 18 19 19 20 21 20 18 17 16 16 15 16 17 17 18 17 18 20 21 19 18 18 20 21 22
12 10 9 9 9 9 9 9 9 10 11 12 13 13 14 14 14 15 14 14 15 15 13 12 11 9 7 8 9 11 11 12 12 14 17 18 18 20 21 19 18 19 18 17 16 16 18 20 21 22 22 20 20 21 20 20 22 21 20 20 20 20 20 21 21 20 19 18 17 17 16 16 18 17 17 17 17 18 19 20 19 19 19 20 21
11 10 9 9 9 9 9 9 9 10 10 11 11 12 12 13 13 13 13 13 13 14 14 13 11 9 7 6 7 9 10 10 11 13 15 15 15 17 15 12 14 17 17 16 18 19 21 21 22 23 23 24 25 25 23 22 22 23 22 21 20 20 20 20 20 20 19 18 17 17 16 16 18 17 16 17 17 17 19 20 20 19 20 21 20
11 11 9 9 8 8 9 9 9 10 10 10 10 11 11 12 12 12 12 12 12 13 13 13 12 11 10 8 8 9 9 9 10 13 14 13 12 11 10 10 13 15 15 14 16 19 22 22 22 22 23 24 26 27 26 23 23 25 26 23 21 21 20 20 21 20 20 20 18 17 17 16 17 17 16 17 17 18 19 20 20 20 20 22 22
10 11 10 9 8 8 8 8 8 9 9 9 10 11 11 12 13 12 11 11 11 11 12 12 12 12 12 11 10 10 10 10 10 11 13 13 12 10 8 9 11 13 13 13 13 16 19 20 19 19 21 23 24 26 26 24 24 26 28 28 27 25 23 21 21 21 21 21 20 18 17 18 18 18 18 18 18 18 19 20 21 21 20 21 22
9 10 10 9 9 9 8 8 8 8 8 8 9 10 12 13 13 13 12 11 11 10 10 10 10 11 12 11 11 11 11 12 12 11 11 12 11 9 8 8 9 10 10 11 12 14 16 17 17 18 19 21 23 24 24 24 24 24 26 28 29 27 24 21 20 20 20 20 21 19 18 19 20 20 20 20 20 20 20 20 20 21 21 21 22
10 10 10 10 9 9 9 9 9 9 9 8 9 10 11 13 12 11 12 11 10 10 9 9 9 10 10 11 11 12 13 14 14 13 12 11 11 10 10 10 11 11 11 10 11 13 15 15 16 18 19 20 22 23 24 25 25 25 25 26 27 25 23 22 22 23 22 20 20 20 18 19 21 22 21 20 21 22 21 20 21 21 22 22 23
10 10 9 9 9 8 8 8 8 9 9 9 10 11 11 13 13 11 11 10 10 11 11 11 11 10 10 11 12 12 13 15 15 15 14 13 12 10 10 11 10 11 11 11 11 12 14 15 16 17 18 18 20 21 22 23 24 24 23 23 26 25 22 21 22 25 26 24 21 21 21 20 21 22 21 21 22 24 23 22 22 21 21 22 23
9 9 9 9 9 8 8 7 7 7 8 8 9 10 11 12 13 12 11 10 10 12 13 12 11 11 11 12 12 13 14 15 16 16 16 17 16 13 11 11 11 11 11 12 12 12 13 13 14 16 17 18 20 22 21 19 19 22 21 21 23 23 22 22 21 22 24 23 22 24 24 22 21 21 21 21 22 23 22 22 23 22 21 21 21
9 9 8 8 8 8 7 7 7 7 7 8 8 9 11 12 12 12 12 11 11 12 14 13 12 11 11 12 12 13 15 16 16 17 17 17 17 16 15 14 13 12 12 13 13 14 14 13 13 14 16 16 17 19 20 19 18 21 22 21 21 22 22 23 23 22 21 21 23 26 27 26 26 24 24 25 24 22 22 23 24 24 23 23 22
9 8 8 7 7 7 7 7 7 7 8 8 8 9 11 11 11 11 11 11 11 11 12 13 12 12 11 12 12 13 14 15 15 15 16 16 16 16 17 16 15 13 13 13 14 15 16 16 15 15 16 16 14 14 17 19 19 19 20 21 22 23 23 23 24 25 24 23 26 28 28 29 29 28 28 30 28 25 25 25 25 25 25 26 24
10 9 8 7 6 6 6 6 7 7 7 7 8 9 10 11 11 11 11 11 12 11 11 11 11 12 12 12 12 13 13 13 14 14 15 16 16 15 15 16 16 15 15 14 14 14 15 15 15 14 16 18 17 17 18 20 21 21 21 21 21 22 23 24 25 25 24 24 27 28 28 29 30 30 30 32 31 29 28 29 29 27 26 27 25
10 9 9 8 7 6 6 6 6 6 7 7 8 9 10 10 10 11 12 12 13 13 12 12 12 13 13 13 13 13 13 13 13 14 15 15 15 14 14 15 16 17 17 16 15 15 15 15 14 14 17 19 19 19 20 21 23 24 24 24 23 23 23 23 23 24 24 24 26 27 27 27 29 29 29 30 31 31 32 32 32 29 26 26 26
10 10 10 10 9 8 7 7 7 7 7 7 7 8 10 10 11 11 12 13 13 14 14 14 14 14 15 15 15 15 15 15 14 14 15 14 14 14 14 15 15 16 17 16 15 15 15 15 15 15 18 20 19 19 20 19 20 21 22 23 24 24 25 24 23 24 23 24 27 28 28 29 30 30 29 29 32 34 35 36 36 34 31 28 26
9 11 12 12 12 12 11 11 10 10 9 9 8 9 10 11 11 11 12 12 13 14 14 15 15 15 15 15 16 16 16 16 16 16 16 15 15 15 14 14 15 15 15 15 15 15 15 15 14 15 18 21 20 20 21 20 20 21 21 21 21 22 23 24 25 25 24 24 25 26 27 29 31 31 31 31 32 34 36 37 38 38 37 35 33
8 10 12 13 13 13 13 13 13 13 13 12 11 12 12 13 13 13 13 13 12 13 14 15 15 15 15 15 15 15 16 16 16 16 16 16 16 15 14 14 14 14 14 14 14 14 14 14 14 14 17 20 19 20 21 22 21 21 22 23 22 22 22 22 23 24 24 24 26 26 27 29 31 32 33 33 34 35 35 35 36 37 37 38 39
8 10 11 12 13 14 14 14 14 14 14 14 15 15 15 15 14 14 14 14 13 14 14 14 14 14 14 14 14 14 14 16 17 17 17 17 16 15 15 14 13 13 13 13 13 13 14 14 14 15 18 19 19 19 20 21 21 21 22 22 23 23 22 22 23 24 25 25 26 28 30 32 33 34 35 35 36 36 35 35 35 36 36 35 36
9 10 11 12 13 13 13 13 14 14 15 15 16 16 16 16 16 16 16 15 15 14 13 13 13 13 13 13 13 13 14 15 17 18 18 18 17 15 15 14 14 13 12 12 12 12 14 15 15 16 18 19 20 20 21 21 21 22 21 22 22 23 22 22 24 25 26 25 26 26 28 29 31 33 34 35 35 35 35 37 36 35 36 36 37
9 10 11 12 12 12 12 13 13 13 14 14 15 15 16 16 15 16 16 15 14 14 13 12 12 11 11 12 12 13 14 15 16 17 18 18 18 16 15 15 14 14 12 11 11 11 12 14 16 17 18 19 20 21 21 22 23 23 22 22 22 22 23 23 24 25 25 25 25 26 26 26 26 28 31 32 33 33 35 38 38 37 37 37 37
9 9 10 11 11 11 11 12 12 13 14 14 14 15 15 14 14 15 14 13 13 14 14 12 11 9 9 10 12 13 15 16 16 18 18 18 18 18 17 17 17 15 14 13 14 14 13 14 15 16 17 18 19 20 20 22 23 23 23 23 23 24 24 24 24 25 26 26 25 26 26 25 25 26 28 30 31 32 33 35 37 38 38 38 38
7 9 10 10 10 10 11 11 12 13 13 14 14 14 14 14 14 15 14 13 14 15 15 12 10 9 9 8 9 12 15 17 17 18 18 19 19 19 19 19 19 18 18 19 20 20 19 19 19 18 17 17 17 18 19 19 20 21 22 23 23 24 25 25 25 25 27 27 27 27 26 26 26 25 26 27 28 29 29 30 31 34 35 36 37
6 8 9 9 9 9 10 11 12 13 13 13 14 14 14 15 15 15 14 14 15 16 15 12 9 9 9 8 8 9 11 15 17 18 18 19 19 19 19 19 20 21 20 20 21 23 22 23 23 22 21 20 19 18 18 18 18 19 20 22 22 22 23 24 24 25 25 26 27 28 27 26 26 25 24 25 25 26 26 27 29 31 32 33 35
5 7 7 7 7 8 9 10 11 11 11 12 13 13 14 14 15 15 15 14 13 13 14 12 9 8 7 7 8 8 8 11 16 18 18 18 17 17 17 17 18 20 19 17 20 22 22 22 23 22 21 21 19 18 18 17 17 18 19 20 21 20 20 21 21 22 22 20 20 22 22 22 22 22 21 22 23 24 24 26 28 29 30 32 34
4 5 5 5 6 7 7 8 9 9 10 11 11 12 13 13 14 15 15 14 12 11 11 11 9 8 8 7 8 9 9 13 18 19 18 17 17 16 15 15 16 17 17 16 18 20 21 22 22 21 20 18 17 17 16 15 15 15 17 18 18 17 18 19 19 19 20 18 16 16 16 17 16 17 18 19 21 23 26 28 29 29 29 31 32
3 3 3 3 4 5 6 7 8 8 9 10 10 11 11 12 12 13 13 13 12 10 10 11 10 10 9 8 9 10 11 15 19 19 17 18 17 16 16 15 14 15 15 16 17 19 20 21 22 22 21 19 18 19 18 17 16 15 16 16 14 13 15 17 17 18 19 19 19 19 20 21 21 20 21 22 23 24 25 28 31 30 30 31 31
3 3 2 2 3 4 5 5 6 8 9 9 10 10 11 11 11 11 11 11 10 9 9 10 11 11 10 9 12 12 11 14 18 19 17 17 17 17 18 17 17 16 16 17 18 19 19 20 21 23 22 20 20 21 21 21 19 18 18 16 14 14 15 16 17 17 19 20 21 22 23 24 26 27 27 26 26 23 21 23 27 29 29 29 29
3 3 3 2 2 3 3 4 5 7 8 9 9 10 11 11 11 11 11 10 10 9 10 10 11 11 10 11 13 14 13 15 18 18 18 18 17 17 18 18 18 19 19 19 20 20 20 20 21 22 23 21 20 20 20 21 20 18 17 16 15 16 16 16 15 16 18 20 21 22 23 24 26 27 29 29 29 27 24 21 22 24 25 27 29
5 4 3 2 2 1 2 3 4 5 7 8 8 8 9 9 9 10 10 11 11 10 10 11 12 13 12 12 14 13 13 15 18 18 18 19 18 18 18 18 18 18 19 20 21 21 20 18 18 19 20 21 21 19 19 20 20 17 17 17 17 18 19 17 16 18 20 21 21 21 22 22 23 24 26 28 29 29 28 26 24 23 22 23 27
6 5 4 3 2 1 1 2 3 3 4 6 6 7 7 7 9 10 11 10 11 10 11 11 12 13 12 13 15 14 14 16 18 18 18 18 18 18 18 17 18 18 18 19 20 20 18 15 15 15 15 17 19 20 21 22 20 18 17 17 17 19 21 21 22 25 26 25 24 24 24 22 22 22 22 24 25 27 28 28 29 29 26 24 25
7 6 5 5 4 2 1 1 2 3 3 4 5 7 8 8 8 9 10 10 10 10 11 11 12 12 13 13 14 14 15 16 17 17 18 18 18 17 17 17 17 18 17 17 17 16 16 15 15 16 15 15 18 20 21 22 22 21 19 17 16 18 21 21 23 27 28 25 25 27 27 27 26 24 23 23 23 24 25 26 28 30 30 30 30
8 7 6 6 5 3 2 2 2 2 2 3 3 4 7 9 9 9 9 10 12 12 12 12 12 12 13 14 15 15 15 17 17 17 17 17 17 17 17 17 17 16 16 16 15 14 15 15 15 16 16 16 18 20 21 22 23 23 21 20 20 19 19 19 21 25 25 24 25 26 27 28 28 28 26 25 23 22 22 23 25 27 29 32 34
9 8 8 8 7 5 4 3 2 2 2 3 3 2 3 6 9 11 11 11 12 13 13 13 14 14 14 14 15 16 16 16 17 17 17 16 16 16 17 16 16 15 14 14 14 15 15 15 15 16 17 16 17 19 21 22 23 23 23 23 24 23 21 20 21 22 23 23 23 24 25 27 28 28 28 27 26 24 22 21 22 24 26 29 32
10 9 9 8 7 5 5 4 3 2 2 2 3 2 1 3 6 9 12 14 15 14 13 13 13 14 14 14 14 15 16 16 17 17 17 16 15 16 15 14 13 13 13 14 14 15 15 15 15 17 18 18 18 19 20 21 22 23 23 23 24 24 24 24 23 23 24 24 23 22 23 25 27 28 28 28 27 26 24 23 22 22 24 26 29
11 11 10 9 8 6 5 5 4 3 3 3 3 3 3 3 3 4 7 11 14 15 16 16 14 14 14 15 15 15 15 15 15 15 15 15 15 15 14 13 12 13 14 15 14 14 15 15 16 17 18 18 19 19 19 20 21 22 23 23 24 24 25 25 25 24 24 24 24 24 25 25 25 26 28 27 28 27 25 24 24 24 24 25 27
11 12 12 11 9 8 7 6 5 5 5 4 3 3 4 5 5 4 5 6 7 9 11 14 16 17 15 14 14 15 15 15 15 14 14 14 14 14 13 12 13 14 14 15 15 15 16 16 17 18 19 19 19 19 19 20 21 22 22 23 24 25 26 26 25 25 24 24 24 25 26 26 25 26 26 27 27 27 26 25 25 25 25 26 26
13 12 12 12 11 9 8 7 7 6 5 5 4 4 4 4 4 5 6 6 6 6 6 8 13 18 19 18 16 16 15 15 14 13 13 13 13 13 13 12 12 12 14 15 15 16 17 17 18 19 20 20 20 20 20 20 21 22 23 23 24 25 26 26 26 26 26 26 25 25 25 26 26 26 26 26 26 26 27 26 26 26 26 26 26
14 13 12 12 12 10 9 9 8 8 7 5 4 4 4 4 4 4 4 5 7 8 6 7 10 13 15 18 19 18 16 14 13 13 13 13 13 13 12 12 11 12 13 14 15 16 17 18 19 20 20 21 21 21 21 21 22 23 23 24 24 24 25 26 26 27 27 26 26 26 26 26 26 26 26 26 26 26 26 26 26 26 26 26 27
15 14 14 13 12 11 10 9 9 8 6 5 4 4 4 5 5 5 4 6 8 8 6 7 9 9 11 15 18 19 17 16 15 15 15 14 13 12 12 11 11 11 11 12 13 14 15 16 18 19 20 21 21 22 22 22 22 23 24 24 25 25 25 26 26 26 27 27 26 26 26 26 26 26 26 26 27 27 26 26 26 28 28 27 27
16 16 16 15 13 11 10 10 9 8 6 5 5 6 5 5 4 4 5 6 7 7 6 7 8 10 14 17 18 17 16 15 14 14 14 14 13 12 12 12 12 12 12 12 13 14 14 15 17 18 19 20 21 22 22 23 23 24 24 25 25 26 26 27 27 27 27 27 27 27 28 28 27 27 27 27 27 27 27 26 27 27 28 29 28
15 15 16 15 14 13 12 11 10 8 7 7 7 6 6 5 5 5 5 6 6 7 7 8 9 12 16 17 16 16 15 13 13 14 14 14 14 13 13 13 13 13 13 14 14 14 15 16 16 17 18 19 20 21 22 23 23 24 25 25 26 26 26 27 27 27 27 27 27 28 28 29 28 28 28 28 27 27 27 28 28 27 28 29 29
15 15 16 16 15 13 12 12 10 9 9 8 7 6 6 6 6 6 6 6 7 7 8 8 11 15 16 16 16 16 15 13 13 14 14 14 15 14 14 14 14 14 15 15 15 15 15 16 16 17 17 18 19 20 21 22 23 24 25 26 26 27 26 26 27 27 27 27 28 28 29 29 29 29 29 29 28 27 27 28 28 28 28 28 29
16 16 16 16 15 13 12 12 11 11 10 9 8 8 7 7 7 7 7 7 7 8 8 7 10 15 17 16 15 15 15 13 14 14 14 14 15 15 15 15 15 15 16 16 16 16 16 16 17 17 18 18 19 19 20 21 22 23 24 25 26 27 27 27 27 28 28 28 28 28 29 29 29 30 30 29 29 29 29 29 28 28 29 29 29
17 17 17 16 15 13 13 12 11 10 10 9 9 9 9 8 8 8 9 8 9 9 8 7 9 13 17 17 16 15 14 15 15 15 14 14 14 14 15 16 16 16 16 16 17 17 17 17 17 17 17 18 19 19 20 21 21 22 23 24 25 26 27 27 28 28 29 30 29 29 29 29 30 30 31 30 30 30 30 30 30 29 29 29 29
18 19 19 17 14 13 13 12 11 11 11 11 11 11 11 10 8 7 8 8 9 10 9 8 9 12 14 16 16 16 15 15 15 15 15 15 15 15 15 15 16 17 17 17 17 17 17 17 17 17 17 18 18 19 19 20 20 21 22 23 24 25 26 27 28 28 29 30 30 30 30 30 30 31 31 31 31 31 31 31 31 30 30 29 29
18 19 19 17 15 14 13 13 12 12 12 12 11 11 11 9 8 8 8 8 9 10 9 9 11 12 11 12 13 15 15 15 15 15 16 16 16 16 16 16 17 17 17 17 18 18 18 18 18 18 18 18 18 18 18 19 19 20 21 22 23 24 25 26 27 28 29 29 30 31 31 31 30 31 31 31 31 31 31 31 31 31 30 30 29
19 21 20 17 15 14 14 13 13 13 12 11 10 9 9 8 8 9 9 9 9 10 10 9 10 11 11 11 12 14 15 15 15 15 16 16 16 16 16 16 17 17 17 17 18 18 18 18 18 18 18 18 18 18 18 18 19 20 21 21 22 23 25 26 27 27 28 28 29 30 30 31 31 30 30 30 31 31 30 30 31 31 30 29 28
20 22 20 18 17 16 15 14 13 13 12 11 10 10 10 9 9 10 11 11 11 12 10 9 9 10 11 11 12 13 14 14 14 15 16 17 16 17 17 17 17 17 18 18 18 18 18 18 19 19 18 18 18 18 18 18 19 19 20 21 22 23 24 25 26 27 27 27 28 28 29 30 30 30 30 30 30 30 30 30 30 30 30 28 27
23 23 22 20 18 17 16 15 14 13 13 13 12 12 11 11 11 11 11 12 13 12 10 9 9 10 11 12 12 13 13 14 14 15 15 16 17 17 18 17 17 17 17 18 18 18 18 18 18 19 18 18 18 18 18 18 18 19 20 21 22 22 23 24 25 26 26 26 26 27 27 28 28 28 29 29 29 29 30 30 30 29 29 28 26
26 25 23 21 20 18 17 16 15 14 13 13 13 13 12 12 11 10 10 11 11 10 9 9 9 10 11 11 13 13 13 13 14 14 14 15 16 17 18 18 18 17 17 17 18 18 18 18 18 18 18 18 18 18 19 18 18 19 20 20 21 22 22 22 23 24 25 26 26 26 26 26 26 26 27 28 28 29 29 29 29 28 28 27 25
27 26 25 23 21 20 18 16 15 14 14 14 13 12 11 11 11 10 11 11 10 10 10 10 11 11 11 11 12 13 13 13 13 14 14 15 16 17 17 17 17 17 17 17 17 17 18 18 18 18 18 18 18 18 18 19 19 19 19 20 21 21 22 22 22 22 23 24 25 25 25 24 25 25 25 26 27 28 28 28 28 28 27 26 25
29 27 25 23 22 20 19 18 17 17 16 15 14 12 12 11 10 10 11 12 10 9 10 11 11 12 12 11 12 13 13 13 14 14 14 15 16 17 17 17 17 17 17 17 17 17 17 17 18 18 18 18 18 18 18 19 19 19 19 19 20 20 21 22 22 22 22 23 23 24 23 23 23 23 24 25 26 27 27 26 26 26 26 25 24
Wind_Direction
347 330 325 326 327 329 326 326 328 329 331 331 330 328 326 327 327 329 333 335 336 338 340 334 324 310 297 292 288 285 279 272 267 263 257 253 250 247 247 244 239 239 239 235 237 244 246 244 243 246 252 257 258 256 253 251 253 250 246 242 238 238 240 243 250 256 257 257 258 257 254 253 253 252 253 252 252 256 259 254 248 248 248 247 249
352 338 326 323 326 330 329 328 328 331 336 337 335 333 330 329 328 327 327 328 328 330 336 339 336 327 308 296 292 291 292 287 279 273 266 261 261 258 252 251 253 253 251 249 248 248 248 247 245 246 252 258 262 263 256 251 255 256 252 248 243 239 240 244 249 255 258 256 255 257 256 254 255 257 256 254 253 252 254 254 250 247 247 247 248
354 350 337 326 324 326 328 330 332 335 339 339 337 339 340 338 338 337 331 326 324 325 329 333 332 330 322 307 297 296 295 293 293 291 279 270 269 264 256 260 267 260 256 257 258 257 253 250 249 248 251 254 256 259 256 253 256 254 250 250 249 246 244 245 247 250 255 256 253 253 255 254 255 256 255 256 256 253 250 251 251 248 247 248 247
355 356 351 343 334 328 327 328 330 333 335 337 339 340 341 341 343 347 342 333 327 322 325 334 340 340 340 339 330 320 313 307 304 304 306 307 302 289 278 276 274 270 267 263 261 260 256 252 249 249 250 251 252 254 253 250 250 250 251 254 252 249 247 246 246 248 254 258 257 254 254 253 255 256 256 257 257 256 253 251 250 248 247 249 249
357 358 357 356 353 347 341 337 335 337 338 338 340 342 345 346 346 348 346 341 338 330 328 340 346 339 336 337 332 325 321 318 310 305 310 316 315 312 310 295 278 275 274 267 265 263 257 254 256 255 255 254 255 257 257 254 251 251 253 253 252 251 249 247 248 250 253 258 260 258 255 253 253 254 254 255 256 257 256 254 252 251 248 248 249
4 360 360 1 2 360 359 359 356 355 350 344 345 348 352 353 351 350 349 349 353 351 343 340 334 323 323 325 325 324 322 318 313 309 310 307 304 309 319 314 297 287 281 274 273 271 264 263 265 263 262 263 262 263 264 262 259 257 255 253 253 253 251 248 248 249 251 256 261 261 257 254 253 253 252 251 252 254 255 255 254 252 250 248 248
13 5 3 4 3 2 4 12 14 10 4 359 357 357 359 360 359 359 1 1 1 1 353 343 332 324 322 324 327 330 328 322 318 319 317 306 299 299 299 299 300 303 305 300 290 284 279 276 273 270 269 272 273 271 269 267 264 262 261 260 258 255 251 250 249 247 246 251 259 262 258 256 254 253 254 252 250 251 252 253 252 251 251 250 248
15 9 7 5 6 7 6 11 19 16 9 7 3 1 5 10 11 9 10 11 8 4 1 356 351 344 339 338 337 334 333 331 329 331 331 323 316 310 303 302 302 302 304 302 297 296 293 285 281 281 280 278 279 277 272 270 270 268 266 266 265 260 255 255 254 253 251 251 254 257 256 257 256 255 255 251 248 249 249 250 251 252 252 251 249
13 11 11 7 6 11 8 7 14 13 7 5 5 8 14 19 21 18 16 20 18 12 10 8 5 0 355 354 352 347 347 347 345 344 343 340 338 338 333 324 315 308 302 295 289 290 293 293 292 293 290 284 283 283 280 274 271 269 268 268 269 267 263 262 263 264 261 256 253 255 257 258 257 257 258 253 248 251 252 251 252 253 253 253 249
12 10 12 10 7 10 11 11 15 12 10 10 11 17 21 21 23 20 15 16 16 14 13 13 15 12 3 0 1 357 355 355 354 354 352 348 347 347 343 337 328 320 314 305 295 286 285 287 287 289 292 289 287 287 285 277 269 267 267 265 264 264 263 264 265 266 266 264 261 262 263 262 259 259 260 256 253 256 258 257 255 253 253 252 251
20 14 13 12 10 12 11 12 16 16 17 18 19 21 21 19 18 16 13 12 11 11 11 10 10 11 6 3 2 358 354 353 353 353 350 345 341 338 335 335 333 327 320 315 311 302 293 288 285 286 288 284 281 281 281 278 275 272 270 265 263 264 265 266 266 264 264 265 266 267 268 268 266 262 261 262 261 259 257 258 257 254 253 252 251
29 20 17 12 7 15 19 14 14 17 17 17 22 26 23 19 18 17 18 20 20 18 15 11 7 5 4 1 357 353 349 345 341 339 338 336 333 330 329 329 329 327 325 324 321 316 311 305 303 302 291 279 273 272 273 275 276 275 273 270 267 267 268 268 268 269 267 263 262 264 265 266 267 264 263 266 267 263 259 260 259 256 254 254 253
34 30 29 22 11 15 25 21 16 20 19 15 21 30 28 22 22 24 25 26 27 25 22 21 17 12 9 5 360 357 354 348 344 341 339 337 334 330 327 324 323 322 322 322 319 315 313 311 311 306 294 285 282 280 280 279 278 278 277 275 272 269 269 268 266 267 268 265 261 261 260 260 262 264 265 266 267 266 264 264 264 262 260 259 258
41 43 44 43 38 32 32 34 32 31 28 24 23 27 28 25 23 25 26 25 24 23 20 19 18 15 13 9 4 2 0 359 357 354 352 350 346 342 337 332 330 328 326 325 322 316 311 308 305 297 289 289 291 290 290 290 287 286 285 281 278 275 272 270 267 266 266 264 263 263 263 260 259 259 262 264 264 264 264 264 266 268 268 265 265
48 52 52 52 53 51 46 45 45 42 38 39 35 32 33 32 29 28 27 24 21 18 15 12 11 9 7 4 2 1 359 358 357 357 356 355 352 349 347 342 338 336 333 333 330 325 320 314 308 298 289 291 295 294 294 296 295 294 292 289 286 283 279 277 274 271 267 264 264 265 266 264 262 260 260 262 263 264 264 264 266 269 270 267 267
52 54 53 52 53 54 52 49 48 45 42 43 44 43 42 40 37 35 32 28 22 17 12 9 7 4 1 0 360 359 357 352 351 352 352 351 350 348 346 343 340 337 335 334 332 328 324 320 315 304 295 297 300 298 296 298 297 294 293 292 291 289 287 286 284 280 275 268 264 262 261 260 261 261 260 260 261 262 264 265 265 266 267 267 267
58 55 53 52 52 52 52 50 48 46 42 40 41 43 43 40 36 34 33 28 23 18 13 7 3 359 357 359 358 356 354 350 347 347 347 346 346 345 343 341 338 334 332 331 330 326 322 319 315 308 302 303 306 303 300 300 299 295 294 293 292 291 290 289 286 283 279 274 268 263 260 259 260 261 262 261 261 262 264 263 261 260 262 264 267
67 62 56 54 52 51 52 50 48 46 42 39 39 38 37 34 30 29 30 27 21 18 13 7 1 356 357 3 3 359 360 359 355 352 352 353 353 351 350 346 341 337 334 331 329 326 323 318 312 308 307 307 307 305 304 303 302 299 298 296 294 294 292 287 281 278 277 277 275 271 268 266 265 264 263 261 260 260 262 262 260 259 260 261 262
72 68 63 59 56 53 53 52 50 48 44 41 40 38 36 34 30 29 31 28 22 18 15 12 9 5 8 16 19 18 17 16 12 9 6 4 4 4 3 359 354 351 348 344 341 337 332 325 316 311 310 308 305 305 304 302 301 300 299 296 294 293 290 287 285 284 283 281 279 277 275 273 271 269 267 264 261 258 258 259 259 260 261 261 261
75 72 68 63 58 55 55 53 50 49 45 42 41 40 40 37 35 35 35 32 27 23 23 24 22 20 23 27 30 33 33 29 24 21 17 14 13 12 11 8 5 2 3 5 3 358 354 344 331 323 318 311 305 303 300 298 299 299 298 295 293 292 291 289 289 288 287 286 284 281 280 277 275 273 271 270 266 262 260 259 258 258 260 264 263
80 74 69 64 58 54 52 51 48 45 43 41 39 38 39 37 37 39 37 33 31 32 34 37 34 30 31 31 31 35 36 32 27 21 18 17 15 14 13 11 7 7 12 15 10 5 3 357 349 344 338 328 318 311 303 299 298 297 296 295 293 293 291 290 288 286 284 285 285 284 284 282 280 277 274 274 274 272 269 265 261 260 260 262 262
80 72 66 60 54 51 50 47 44 41 38 35 34 32 31 31 34 37 36 34 33 34 36 41 43 39 35 29 24 24 26 26 22 17 13 11 11 11 12 9 6 8 13 13 7 5 4 0 356 354 350 345 339 331 321 314 307 301 298 296 295 294 291 289 289 286 284 284 283 283 283 283 282 278 273 271 272 272 272 269 266 265 264 263 262
79 70 65 58 51 50 48 44 42 39 34 32 31 27 25 24 25 27 30 34 35 33 32 35 38 36 30 24 17 10 6 10 11 9 5 3 3 5 6 4 4 8 11 8 2 1 2 360 358 356 354 354 352 346 338 331 324 318 310 304 300 299 295 291 288 285 284 284 286 288 290 292 291 287 283 279 278 276 274 270 266 266 266 266 266
87 74 68 62 54 52 50 46 44 40 35 33 31 26 23 22 20 19 21 28 33 30 28 30 30 24 19 11 3 358 351 352 358 1 359 359 360 360 358 357 0 5 8 7 2 358 355 356 356 355 356 359 0 360 356 348 340 333 325 317 311 307 303 296 291 288 285 284 285 284 282 283 284 285 283 281 277 273 268 262 259 259 260 262 263
115 96 82 75 65 60 55 49 45 42 38 37 34 29 26 25 22 18 17 21 25 23 20 21 19 17 16 7 359 357 350 347 353 358 358 358 359 359 357 356 356 356 357 359 358 353 351 353 353 353 356 1 5 8 10 6 3 1 354 343 335 331 325 316 309 303 297 291 285 278 269 265 263 263 263 262 263 267 270 266 262 260 260 262 262
155 139 126 108 82 69 61 52 45 40 37 36 33 28 27 25 22 21 19 19 20 17 13 13 11 10 8 359 356 359 354 349 353 357 359 359 360 359 359 359 357 354 353 353 351 348 348 352 353 352 356 2 6 8 10 12 13 13 13 8 1 356 351 342 334 327 319 311 304 296 288 280 273 269 268 267 266 269 277 281 277 272 268 268 268
183 174 161 139 100 72 60 49 43 36 32 33 29 24 22 22 19 18 16 15 16 14 9 6 5 5 2 355 355 358 354 349 352 355 356 357 359 359 359 359 357 355 354 353 351 350 353 355 353 352 355 2 6 6 7 11 13 11 13 15 10 5 4 1 354 345 336 329 322 314 307 300 291 284 280 277 274 272 272 275 279 280 278 275 273
200 194 186 171 145 100 60 46 46 37 28 30 29 22 20 19 15 13 12 9 9 10 6 2 360 1 359 354 355 357 351 346 350 354 353 354 356 356 357 357 356 354 354 353 351 353 359 357 350 350 354 358 2 2 0 6 10 8 7 11 9 8 10 9 4 360 356 351 343 333 323 316 309 301 293 286 282 278 274 269 267 271 275 276 275
209 203 198 193 188 169 90 40 44 40 25 23 23 21 24 24 13 8 7 5 3 3 3 359 357 357 357 354 354 356 350 346 349 351 351 352 353 353 353 354 353 353 354 352 349 353 360 357 351 355 356 354 356 358 358 0 4 2 360 2 3 6 10 9 5 2 3 2 358 352 346 337 328 320 310 300 292 287 282 275 270 269 267 269 275
215 212 205 205 215 210 194 353 20 33 27 20 9 6 17 25 18 5 360 360 1 2 2 358 355 356 355 351 350 352 349 347 348 349 348 348 349 351 352 352 352 353 352 349 348 355 2 360 357 1 2 357 356 359 0 360 360 359 356 355 356 359 2 3 2 1 2 1 359 358 358 354 348 341 331 320 310 302 294 285 279 276 272 269 272
215 215 209 214 224 218 209 243 309 360 12 13 8 353 353 1 7 6 2 359 359 360 360 358 355 354 352 348 347 348 347 347 346 345 346 346 345 347 350 350 351 351 348 346 352 1 4 2 1 3 5 3 1 3 4 3 2 2 360 356 355 356 356 355 356 356 357 356 356 357 359 358 356 352 346 339 331 322 312 301 289 283 279 275 274
210 210 212 222 230 223 216 240 282 312 327 348 5 356 323 327 336 345 353 360 1 359 358 356 352 350 350 348 346 345 345 345 343 341 343 345 345 346 349 350 350 349 348 351 360 6 6 3 3 4 5 7 7 6 6 6 5 5 4 1 0 0 358 357 355 353 351 350 351 353 354 355 356 356 355 351 346 340 334 323 308 296 289 283 278
211 209 213 225 235 236 230 238 261 277 283 304 320 325 287 286 307 322 334 345 351 352 354 355 353 349 347 346 346 344 343 342 341 341 342 344 346 349 349 345 345 350 357 3 7 8 6 5 5 6 7 8 9 7 5 4 4 4 3 2 1 1 1 1 359 355 353 353 352 349 348 349 351 354 356 356 353 350 348 342 331 318 307 298 290
219 218 219 222 225 233 237 235 240 248 255 270 290 298 296 305 319 322 323 331 337 339 340 344 349 352 350 348 347 346 344 342 341 342 343 345 348 349 346 344 349 358 5 9 8 7 6 7 7 8 8 8 8 7 4 2 2 2 1 360 359 360 360 360 358 356 355 356 354 351 349 348 348 350 352 353 353 354 355 353 348 339 328 317 307
225 227 230 227 221 223 229 231 232 237 248 268 287 284 291 314 333 338 324 323 328 328 324 327 335 344 349 351 351 348 346 346 346 346 347 348 348 349 352 357 2 2 2 4 4 3 5 7 7 6 6 6 6 5 3 1 360 360 360 358 358 358 357 356 356 356 357 356 354 352 351 351 349 348 349 350 350 351 354 356 355 352 345 336 325
227 229 234 234 229 223 222 226 229 230 233 247 266 277 291 311 321 319 320 323 324 323 310 307 323 335 341 346 351 351 348 348 349 349 350 351 351 355 2 7 6 2 360 0 360 360 2 4 3 2 2 2 2 1 1 1 360 359 359 358 358 357 354 353 354 355 356 356 354 351 351 351 351 349 348 347 349 349 349 351 354 354 354 350 341
224 223 228 232 231 227 223 224 227 233 242 254 267 278 289 300 308 312 307 298 306 318 315 305 319 334 337 338 342 345 344 345 349 352 354 356 358 2 6 5 2 1 360 356 355 358 360 359 358 358 357 357 357 357 357 358 358 357 356 357 356 355 352 351 353 355 354 353 352 351 351 350 350 350 348 347 348 348 346 347 349 351 353 354 350
221 219 222 225 227 225 224 228 234 244 257 267 264 257 257 268 290 303 293 290 306 319 317 310 320 330 329 329 335 340 343 347 351 354 357 0 2 3 2 2 2 3 360 356 355 358 358 355 354 354 353 352 353 353 352 353 355 354 353 352 352 352 351 352 353 353 352 351 351 351 351 350 350 349 348 348 349 347 344 344 346 348 350 352 352
221 223 225 226 226 223 218 221 234 246 252 247 243 252 266 275 285 287 282 288 300 305 303 306 314 319 324 330 336 341 345 349 351 351 354 358 359 359 359 1 2 1 360 359 359 358 356 354 352 351 350 350 350 349 348 349 350 350 350 349 349 350 350 350 351 351 350 350 351 351 351 351 350 349 350 350 348 346 344 345 346 345 345 347 349
221 225 228 226 225 224 218 216 225 233 235 234 237 248 261 269 272 276 281 286 288 291 297 303 306 314 325 331 334 338 344 347 346 346 350 352 354 356 358 358 358 358 358 360 360 358 356 354 352 350 349 347 346 346 346 346 346 346 346 347 347 348 348 348 348 348 348 349 350 351 351 351 350 350 351 350 348 346 346 346 345 344 343 343 344
215 222 228 225 223 224 225 223 221 221 225 232 238 242 251 262 271 277 280 283 285 290 297 300 303 314 326 333 334 336 341 344 342 344 346 347 349 353 354 353 354 356 356 357 357 355 354 353 351 349 348 345 345 344 343 343 343 343 344 344 344 344 345 346 345 345 346 348 350 350 350 350 350 351 350 349 347 348 349 346 342 342 342 342 342
212 217 224 223 220 221 224 223 223 227 233 240 242 242 248 260 270 278 283 285 286 290 294 293 298 312 324 332 333 334 337 340 341 342 344 346 347 348 348 349 351 352 352 353 354 353 352 351 349 348 346 345 344 343 342 342 342 341 341 342 341 341 342 343 343 343 344 346 348 349 349 349 350 350 349 349 349 349 349 346 343 342 341 341 341
213 215 217 218 219 221 220 221 224 229 233 237 240 248 262 270 270 274 284 289 292 297 300 292 291 306 319 328 332 334 337 340 340 340 341 342 343 344 345 346 346 346 347 349 349 349 349 347 346 346 346 344 343 343 341 340 340 340 339 339 339 339 340 341 342 343 344 344 345 347 348 349 349 348 347 348 350 350 348 346 344 342 341 341 341
214 213 213 215 219 221 219 220 220 221 229 239 245 255 271 277 270 266 271 279 289 298 299 292 293 304 315 322 327 333 337 337 336 336 337 338 340 342 343 342 341 342 343 344 345 345 345 344 344 344 344 344 343 342 341 339 339 339 339 338 337 338 339 340 341 343 343 342 343 345 346 347 348 347 347 348 349 348 346 346 344 342 341 340 341
214 213 214 215 218 218 219 220 218 223 240 254 256 259 268 270 262 260 266 272 282 292 294 292 298 308 312 314 318 325 330 332 332 334 335 337 338 339 339 339 339 340 340 340 340 340 341 341 341 342 342 343 343 342 340 339 339 339 338 338 338 339 339 340 341 341 341 341 342 343 343 345 346 345 346 348 348 346 344 344 344 343 340 339 338
215 214 214 215 215 215 218 220 221 229 244 251 244 242 253 258 254 262 273 277 280 287 291 290 294 304 309 309 310 317 324 328 330 330 331 333 333 334 334 335 335 336 336 337 337 337 337 338 338 339 340 342 342 341 341 341 340 339 338 338 339 340 340 340 340 339 340 341 341 341 341 342 343 344 346 347 346 344 343 344 343 342 340 338 337
215 213 213 215 217 219 220 221 224 232 239 239 232 230 236 244 252 264 278 285 287 290 291 287 285 293 300 304 308 314 319 323 324 325 326 329 330 331 332 332 332 333 334 334 334 334 335 335 336 336 337 339 340 341 342 342 340 339 339 339 340 340 340 338 337 338 339 340 340 339 340 340 341 342 345 346 344 343 342 342 341 340 339 339 338
211 211 213 216 220 222 221 223 232 238 235 233 238 241 241 245 254 264 275 285 292 295 292 285 284 289 296 301 306 311 314 318 321 322 324 326 327 327 328 328 329 331 331 331 331 332 333 333 334 335 335 337 339 341 342 342 341 340 339 339 339 339 338 337 337 337 338 338 339 339 339 339 340 342 344 343 342 342 342 341 340 341 341 340 340
210 212 216 219 220 221 221 225 236 242 235 231 239 248 251 253 255 259 265 275 283 287 283 277 278 284 290 296 303 308 312 315 318 319 320 320 321 322 324 325 326 327 328 328 329 329 329 331 333 334 333 335 338 339 340 340 340 340 339 339 338 337 336 337 337 337 336 337 338 339 338 338 340 342 342 341 341 342 341 340 340 341 342 342 341
210 213 217 220 221 223 225 227 230 229 226 226 230 238 245 250 251 254 261 268 271 271 273 275 280 285 288 292 298 304 309 310 311 313 314 314 315 318 320 321 323 324 325 325 326 327 328 330 332 332 333 334 335 337 339 338 338 338 338 337 335 335 335 337 338 338 336 336 337 338 338 338 340 341 339 339 340 341 340 340 340 341 343 344 343
211 213 216 220 221 222 224 226 225 224 228 232 230 228 234 241 243 248 259 266 265 260 263 271 278 283 287 291 295 301 305 307 308 310 311 311 312 315 317 319 320 321 321 322 323 325 327 328 329 330 332 333 333 335 336 335 335 336 335 334 333 334 335 336 338 338 338 337 337 337 339 340 340 338 337 338 340 340 340 341 342 342 343 344 344
Height
1538 1537 1535 1534 1533 1532 1531 1530 1529 1528 1528 1527 1526 1525 1524 1523 1522 1522 1521 1520 1518 1517 1516 1515 1514 1513 1512 1512 1511 1510 1509 1509 1509 1508 1508 1508 1509 1510 1510 1510 1511 1512 1512 1510 1510 1510 1511 1511 1511 1512 1513 1514 1515 1516 1516 1518 1519 1520 1519 1519 1519 1519 1519 1519 1519 1519 1520 1521 1521 1522 1523 1523 1523 1523 1523 1524 1524 1523 1522 1522 1522 1521 1521 1521 1521
1538 1537 1535 1534 1533 1531 1531 1530 1529 1528 1527 1526 1525 1524 1523 1522 1521 1521 1520 1519 1518 1516 1515 1514 1513 1512 1511 1511 1510 1509 1509 1508 1508 1507 1507 1506 1507 1508 1508 1509 1509 1510 1509 1508 1508 1508 1508 1509 1509 1510 1511 1512 1515 1515 1515 1516 1517 1518 1517 1517 1516 1516 1516 1516 1516 1516 1516 1517 1518 1519 1519 1520 1520 1520 1520 1521 1522 1521 1520 1519 1519 1518 1518 1518 1518
1538 1536 1535 1533 1532 1531 1530 1529 1528 1527 1527 1526 1525 1524 1523 1522 1521 1520 1519 1518 1517 1516 1515 1513 1512 1511 1510 1510 1509 1509 1508 1507 1508 1507 1506 1506 1506 1505 1505 1506 1506 1507 1507 1507 1507 1506 1506 1506 1506 1507 1508 1509 1511 1512 1512 1513 1513 1514 1515 1514 1513 1513 1512 1512 1512 1512 1512 1513 1515 1516 1517 1517 1517 1517 1518 1519 1519 1518 1518 1517 1516 1516 1515 1514 1515
1537 1536 1534 1533 1531 1531 1530 1529 1528 1527 1526 1526 1525 1524 1523 1521 1520 1519 1518 1517 1516 1516 1515 1513 1512 1511 1511 1510 1509 1509 1509 1508 1507 1507 1506 1505 1504 1503 1502 1503 1504 1503 1504 1504 1505 1504 1503 1503 1503 1504 1505 1506 1507 1507 1507 1508 1509 1510 1511 1511 1511 1510 1510 1509 1509 1509 1509 1509 1511 1512 1514 1514 1514 1514 1515 1516 1515 1515 1515 1514 1513 1513 1513 1512 1511
1537 1535 1534 1532 1531 1530 1529 1529 1528 1527 1526 1526 1525 1524 1522 1521 1520 1519 1518 1517 1516 1515 1514 1513 1513 1512 1511 1510 1509 1509 1508 1507 1506 1506 1506 1504 1503 1502 1502 1502 1502 1501 1501 1501 1502 1502 1501 1501 1502 1503 1503 1503 1503 1503 1503 1504 1504 1505 1506 1507 1508 1508 1506 1506 1505 1506 1506 1506 1507 1509 1510 1511 1511 1511 1512 1512 1512 1512 1512 1511 1510 1510 1510 1509 1508
1536 1535 1534 1532 1531 1530 1529 1528 1528 1527 1526 1525 1525 1524 1522 1521 1520 1519 1518 1516 1515 1515 1513 1513 1512 1511 1510 1509 1509 1508 1507 1507 1506 1505 1505 1504 1503 1503 1502 1502 1501 1500 1499 1499 1499 1500 1500 1500 1500 1501 1501 1501 1501 1501 1501 1501 1501 1501 1503 1504 1506 1505 1503 1503 1502 1503 1503 1503 1504 1505 1506 1507 1507 1507 1507 1508 1508 1508 1508 1508 1507 1506 1506 1506 1505
1535 1535 1534 1532 1531 1530 1528 1528 1527 1527 1526 1525 1524 1524 1522 1521 1520 1519 1518 1516 1515 1514 1513 1512 1512 1511 1510 1509 1508 1508 1507 1506 1506 1505 1505 1504 1503 1503 1502 1501 1501 1500 1499 1498 1497 1498 1498 1498 1498 1498 1499 1499 1499 1499 1498 1498 1498 1499 1500 1502 1503 1503 1501 1499 1499 1498 1499 1501 1502 1503 1503 1503 1503 1503 1504 1504 1504 1504 1504 1504 1503 1503 1502 1502 1502
1534 1534 1534 1533 1531 1530 1529 1528 1527 1526 1526 1525 1524 1524 1522 1521 1520 1519 1518 1517 1515 1514 1513 1512 1511 1510 1510 1509 1508 1507 1506 1506 1505 1504 1504 1503 1502 1502 1501 1501 1500 1500 1499 1498 1497 1497 1497 1496 1496 1496 1497 1497 1496 1496 1495 1495 1495 1496 1497 1499 1500 1500 1498 1496 1496 1495 1495 1497 1499 1500 1500 1500 1500 1500 1500 1501 1500 1500 1500 1500 1499 1499 1499 1499 1498
1534 1534 1533 1533 1531 1530 1530 1528 1527 1527 1526 1525 1525 1523 1522 1522 1520 1519 1518 1517 1516 1514 1513 1512 1511 1510 1510 1509 1508 1507 1506 1505 1504 1503 1503 1502 1502 1501 1500 1500 1499 1498 1498 1496 1496 1496 1495 1495 1495 1495 1494 1494 1494 1494 1493 1493 1493 1493 1493 1494 1496 1497 1495 1493 1493 1493 1492 1494 1495 1496 1496 1496 1497 1498 1498 1497 1497 1497 1497 1497 1496 1496 1496 1495 1495
1534 1533 1533 1532 1531 1531 1530 1529 1528 1527 1526 1525 1524 1523 1522 1522 1520 1520 1518 1517 1516 1515 1514 1512 1511 1511 1510 1509 1508 1507 1506 1505 1504 1503 1503 1502 1501 1501 1500 1500 1499 1498 1497 1496 1495 1494 1494 1494 1494 1493 1493 1492 1492 1492 1491 1491 1490 1490 1491 1491 1492 1493 1492 1490 1490 1490 1491 1491 1492 1492 1492 1493 1494 1495 1495 1494 1494 1495 1495 1495 1494 1493 1493 1491 1490
1533 1533 1532 1532 1531 1531 1530 1529 1528 1527 1526 1525 1524 1523 1522 1521 1520 1520 1518 1517 1516 1515 1514 1513 1512 1511 1510 1509 1508 1507 1506 1505 1504 1504 1503 1502 1501 1501 1500 1499 1498 1498 1497 1496 1494 1493 1493 1492 1492 1492 1491 1490 1490 1489 1489 1489 1488 1489 1489 1489 1490 1490 1488 1487 1486 1487 1489 1489 1488 1488 1488 1489 1490 1491 1491 1490 1491 1492 1492 1491 1491 1490 1489 1487 1485
1533 1533 1532 1531 1530 1530 1529 1529 1528 1527 1527 1526 1524 1523 1522 1521 1521 1520 1518 1517 1516 1515 1515 1514 1513 1512 1510 1509 1508 1507 1506 1505 1504 1503 1503 1502 1501 1500 1499 1499 1498 1497 1496 1495 1494 1493 1492 1491 1491 1491 1489 1488 1487 1487 1486 1486 1486 1486 1486 1486 1487 1486 1485 1485 1484 1484 1485 1485 1485 1485 1485 1484 1485 1486 1487 1487 1487 1488 1488 1488 1488 1486 1484 1482 1482
1533 1533 1532 1531 1530 1529 1529 1529 1528 1527 1526 1526 1524 1523 1522 1521 1520 1519 1518 1517 1516 1516 1515 1514 1513 1512 1510 1509 1508 1507 1506 1505 1504 1503 1502 1501 1500 1499 1499 1498 1497 1496 1495 1494 1493 1492 1491 1490 1490 1489 1487 1486 1486 1485 1484 1484 1483 1483 1483 1483 1483 1483 1483 1482 1482 1482 1482 1482 1482 1482 1482 1481 1481 1481 1483 1484 1484 1485 1485 1485 1486 1484 1481 1479 1479
1534 1533 1532 1531 1530 1529 1529 1528 1527 1527 1526 1525 1524 1523 1522 1521 1520 1519 1518 1517 1516 1516 1515 1514 1513 1512 1511 1509 1508 1507 1506 1505 1504 1503 1501 1501 1500 1499 1498 1497 1496 1495 1494 1493 1492 1491 1490 1489 1488 1487 1485 1483 1484 1483 1482 1482 1481 1480 1480 1480 1479 1480 1480 1480 1480 1480 1479 1479 1479 1478 1479 1479 1478 1478 1480 1481 1481 1480 1480 1480 1481 1480 1478 1476 1475
1534 1533 1533 1532 1531 1530 1529 1528 1527 1526 1526 1525 1524 1523 1522 1521 1520 1519 1518 1517 1516 1516 1515 1514 1513 1512 1511 1509 1508 1507 1506 1504 1503 1503 1501 1501 1500 1499 1498 1497 1496 1494 1493 1492 1491 1490 1489 1487 1487 1486 1483 1481 1482 1481 1479 1479 1479 1478 1477 1477 1477 1477 1477 1477 1477 1477 1477 1476 1475 1475 1475 1475 1475 1475 1476 1477 1477 1476 1476 1476 1475 1475 1473 1471 1471
1535 1534 1533 1532 1531 1530 1529 1528 1528 1527 1526 1525 1524 1523 1522 1521 1520 1519 1518 1518 1517 1516 1515 1514 1512 1511 1510 1509 1508 1507 1506 1504 1503 1502 1501 1500 1499 1498 1497 1496 1495 1494 1493 1492 1490 1489 1488 1486 1485 1484 1481 1480 1480 1479 1477 1477 1476 1476 1475 1474 1474 1474 1474 1474 1474 1473 1473 1473 1472 1472 1471 1471 1471 1470 1471 1472 1472 1471 1472 1471 1471 1470 1468 1467 1467
1535 1534 1533 1532 1531 1530 1529 1529 1528 1527 1526 1525 1524 1523 1522 1521 1521 1520 1519 1518 1517 1516 1515 1514 1512 1511 1510 1509 1508 1507 1506 1504 1503 1502 1501 1500 1499 1498 1497 1496 1495 1494 1493 1491 1490 1489 1487 1486 1484 1482 1480 1479 1478 1477 1476 1475 1474 1473 1473 1472 1471 1471 1471 1471 1470 1469 1468 1468 1468 1467 1467 1466 1466 1466 1466 1467 1467 1467 1467 1466 1466 1466 1465 1464 1464
1534 1534 1533 1532 1531 1531 1530 1529 1528 1527 1526 1525 1524 1523 1522 1522 1521 1520 1519 1518 1517 1516 1515 1514 1512 1511 1509 1508 1507 1506 1505 1504 1503 1501 1500 1499 1498 1497 1496 1495 1494 1493 1492 1491 1489 1488 1486 1484 1483 1481 1479 1477 1476 1475 1473 1472 1471 1471 1470 1469 1468 1468 1468 1467 1466 1465 1464 1463 1463 1463 1462 1462 1462 1461 1461 1461 1462 1463 1462 1460 1461 1462 1462 1461 1460
1534 1534 1533 1532 1532 1531 1530 1529 1528 1528 1527 1526 1525 1524 1523 1522 1521 1520 1519 1518 1517 1516 1515 1514 1513 1511 1510 1508 1507 1506 1506 1504 1503 1502 1500 1499 1497 1496 1495 1494 1493 1492 1491 1490 1488 1487 1486 1483 1481 1480 1478 1476 1474 1473 1471 1470 1468 1467 1467 1466 1465 1465 1464 1463 1462 1461 1460 1460 1459 1459 1458 1458 1458 1457 1456 1456 1457 1458 1457 1455 1456 1457 1457 1456 1456
1534 1534 1533 1532 1532 1531 1530 1530 1529 1528 1527 1526 1525 1524 1523 1523 1522 1521 1520 1519 1518 1517 1515 1514 1513 1512 1510 1509 1508 1507 1506 1505 1504 1502 1501 1499 1498 1496 1495 1493 1492 1491 1489 1488 1487 1486 1485 1483 1480 1479 1477 1474 1472 1471 1469 1467 1466 1465 1463 1462 1461 1461 1460 1459 1459 1458 1457 1456 1456 1455 1454 1454 1453 1453 1452 1452 1452 1452 1452 1451 1451 1452 1451 1451 1451
1534 1533 1532 1532 1532 1531 1530 1530 1529 1528 1527 1526 1525 1525 1524 1523 1522 1521 1520 1519 1519 1517 1516 1515 1515 1513 1512 1510 1509 1507 1506 1505 1504 1503 1501 1500 1498 1496 1495 1493 1491 1490 1488 1488 1487 1485 1483 1482 1479 1477 1475 1473 1471 1469 1467 1465 1464 1462 1460 1459 1458 1457 1456 1455 1455 1454 1453 1453 1452 1451 1451 1450 1450 1449 1449 1448 1448 1448 1447 1447 1446 1446 1446 1446 1446
1533 1533 1532 1532 1531 1531 1530 1529 1529 1528 1527 1526 1525 1525 1524 1523 1522 1522 1521 1520 1519 1518 1516 1516 1516 1515 1514 1513 1511 1509 1507 1506 1505 1503 1502 1500 1498 1497 1495 1493 1491 1490 1488 1488 1487 1484 1482 1480 1478 1475 1473 1471 1469 1467 1465 1463 1461 1460 1458 1456 1455 1454 1452 1451 1450 1450 1449 1449 1448 1447 1447 1447 1446 1446 1446 1446 1445 1445 1444 1444 1442 1441 1441 1441 1441
1532 1532 1532 1531 1531 1531 1530 1529 1529 1528 1527 1527 1526 1525 1524 1523 1522 1522 1521 1520 1519 1519 1517 1517 1516 1516 1516 1514 1513 1511 1508 1507 1505 1504 1502 1501 1499 1497 1495 1494 1492 1490 1488 1488 1486 1484 1482 1480 1477 1475 1472 1470 1467 1465 1463 1461 1459 1458 1456 1454 1452 1451 1450 1448 1447 1446 1445 1445 1445 1444 1444 1444 1444 1443 1443 1443 1443 1442 1442 1440 1439 1438 1437 1436 1436
1532 1532 1531 1531 1531 1530 1530 1529 1529 1528 1528 1527 1526 1525 1525 1524 1523 1522 1521 1520 1520 1519 1518 1517 1517 1516 1515 1514 1513 1511 1509 1507 1505 1504 1502 1500 1499 1497 1496 1494 1492 1491 1489 1488 1486 1484 1482 1479 1477 1475 1472 1469 1467 1465 1462 1460 1458 1456 1454 1452 1450 1449 1447 1446 1445 1443 1442 1442 1442 1441 1441 1440 1440 1439 1439 1438 1438 1437 1436 1435 1434 1434 1434 1432 1432
1531 1531 1531 1531 1531 1530 1530 1529 1529 1528 1528 1527 1526 1526 1525 1524 1523 1522 1521 1521 1520 1520 1519 1518 1517 1516 1515 1514 1513 1511 1510 1508 1505 1503 1502 1500 1498 1497 1495 1494 1492 1491 1489 1487 1485 1484 1481 1479 1477 1475 1472 1469 1467 1465 1462 1460 1457 1455 1452 1451 1449 1447 1446 1444 1443 1441 1440 1439 1438 1437 1436 1435 1434 1433 1432 1431 1430 1430 1430 1430 1429 1429 1429 1428 1427
1531 1531 1531 1530 1530 1530 1530 1529 1529 1528 1528 1527 1526 1526 1525 1524 1523 1523 1522 1521 1520 1520 1519 1518 1517 1516 1515 1514 1512 1511 1509 1507 1505 1503 1501 1500 1498 1496 1494 1493 1491 1490 1488 1486 1484 1483 1481 1478 1476 1474 1472 1469 1467 1465 1463 1460 1457 1455 1453 1451 1450 1447 1445 1443 1441 1440 1438 1437 1435 1434 1433 1431 1430 1429 1428 1427 1426 1426 1427 1426 1426 1425 1425 1424 1423
1530 1530 1530 1530 1530 1529 1529 1529 1528 1528 1527 1526 1526 1525 1524 1524 1523 1522 1521 1521 1520 1519 1518 1517 1516 1515 1514 1513 1511 1510 1509 1507 1504 1503 1501 1499 1498 1496 1494 1492 1490 1489 1487 1485 1484 1482 1479 1477 1476 1474 1471 1469 1467 1466 1464 1461 1458 1456 1454 1453 1451 1449 1446 1443 1442 1440 1438 1435 1433 1431 1430 1428 1427 1425 1424 1423 1422 1422 1422 1422 1421 1420 1421 1420 1419
1529 1529 1529 1529 1529 1529 1529 1528 1528 1527 1527 1526 1526 1525 1524 1524 1523 1522 1521 1520 1519 1518 1518 1516 1515 1514 1513 1512 1511 1509 1508 1506 1504 1502 1500 1498 1497 1495 1493 1492 1490 1488 1486 1484 1482 1480 1478 1477 1476 1474 1472 1470 1468 1467 1464 1461 1459 1458 1455 1453 1451 1449 1447 1445 1443 1441 1438 1435 1433 1430 1428 1426 1424 1423 1421 1420 1418 1418 1418 1418 1417 1416 1415 1416 1414
1528 1529 1529 1529 1529 1528 1528 1528 1527 1527 1527 1526 1525 1525 1524 1523 1522 1521 1520 1520 1519 1518 1517 1516 1515 1513 1512 1511 1510 1508 1507 1505 1503 1501 1499 1497 1496 1494 1492 1491 1489 1487 1486 1484 1482 1480 1478 1478 1477 1475 1473 1471 1469 1466 1464 1461 1459 1458 1456 1453 1451 1449 1447 1445 1443 1441 1438 1435 1432 1429 1427 1424 1422 1420 1418 1417 1415 1415 1414 1413 1413 1412 1411 1411 1410
1528 1528 1528 1528 1528 1527 1527 1527 1527 1527 1526 1526 1525 1524 1523 1522 1522 1521 1520 1519 1518 1517 1516 1515 1514 1513 1512 1510 1509 1508 1506 1504 1502 1500 1498 1497 1495 1493 1492 1490 1488 1487 1485 1484 1482 1480 1479 1478 1476 1474 1473 1471 1468 1466 1464 1462 1460 1458 1456 1454 1452 1449 1446 1444 1442 1439 1437 1435 1432 1429 1426 1423 1421 1418 1416 1414 1412 1412 1411 1410 1409 1408 1408 1406 1405
1527 1527 1527 1527 1527 1527 1527 1527 1526 1526 1525 1525 1524 1523 1522 1521 1521 1520 1519 1518 1517 1516 1515 1514 1513 1512 1511 1509 1508 1507 1505 1503 1501 1500 1498 1496 1494 1493 1491 1490 1488 1486 1485 1483 1482 1480 1479 1478 1476 1474 1472 1470 1468 1466 1464 1462 1460 1458 1456 1455 1452 1449 1447 1444 1442 1439 1436 1434 1432 1429 1426 1423 1421 1418 1415 1412 1410 1408 1408 1407 1406 1405 1404 1403 1401
1526 1526 1527 1526 1525 1525 1526 1525 1525 1525 1524 1524 1523 1523 1523 1521 1520 1519 1518 1517 1516 1515 1514 1513 1512 1511 1510 1509 1507 1505 1504 1502 1500 1499 1497 1495 1494 1492 1490 1489 1487 1486 1485 1483 1481 1480 1479 1478 1476 1474 1472 1470 1468 1466 1464 1462 1460 1458 1456 1454 1452 1450 1448 1445 1443 1440 1437 1434 1432 1429 1426 1423 1421 1418 1415 1412 1409 1406 1405 1404 1403 1401 1400 1399 1397
1524 1525 1525 1525 1524 1524 1524 1524 1524 1524 1524 1523 1523 1522 1522 1522 1521 1518 1517 1515 1515 1514 1513 1513 1512 1510 1509 1508 1506 1505 1503 1501 1499 1498 1496 1494 1493 1491 1490 1488 1487 1486 1484 1483 1481 1480 1479 1477 1476 1474 1472 1470 1468 1466 1464 1462 1460 1458 1456 1454 1452 1450 1448 1446 1443 1441 1438 1435 1432 1429 1427 1424 1421 1417 1415 1412 1409 1406 1404 1402 1400 1399 1397 1395 1393
1522 1522 1523 1523 1523 1523 1523 1523 1523 1523 1523 1522 1522 1521 1521 1520 1519 1518 1517 1516 1514 1513 1512 1511 1510 1509 1508 1506 1505 1503 1502 1500 1499 1497 1495 1493 1492 1490 1489 1488 1486 1485 1483 1482 1481 1480 1478 1477 1475 1473 1471 1469 1468 1466 1464 1462 1460 1458 1456 1454 1452 1449 1447 1445 1443 1440 1438 1435 1432 1430 1427 1424 1421 1418 1415 1412 1409 1406 1404 1401 1399 1397 1395 1392 1390
1519 1520 1520 1520 1521 1522 1522 1522 1522 1522 1521 1521 1520 1520 1519 1518 1517 1517 1517 1516 1515 1514 1512 1510 1508 1508 1507 1506 1504 1502 1501 1499 1498 1496 1494 1493 1491 1490 1488 1487 1486 1484 1483 1482 1481 1479 1478 1476 1474 1473 1471 1469 1467 1465 1463 1462 1460 1458 1455 1453 1451 1448 1446 1444 1442 1439 1437 1434 1432 1429 1426 1423 1421 1418 1415 1412 1409 1406 1403 1401 1398 1396 1393 1391 1388
1517 1517 1518 1518 1519 1519 1520 1520 1520 1520 1520 1519 1519 1518 1518 1517 1516 1516 1515 1515 1514 1514 1513 1511 1508 1506 1505 1504 1503 1502 1500 1499 1497 1496 1494 1492 1491 1489 1488 1487 1486 1484 1483 1481 1480 1478 1477 1475 1473 1472 1470 1468 1467 1465 1463 1461 1459 1457 1455 1452 1450 1448 1445 1443 1441 1438 1436 1433 1431 1428 1426 1423 1420 1417 1415 1412 1409 1406 1403 1401 1398 1395 1393 1390 1387
1514 1515 1516 1516 1516 1517 1517 1518 1518 1517 1517 1517 1517 1516 1516 1516 1515 1515 1515 1514 1513 1512 1512 1511 1509 1506 1504 1503 1502 1501 1500 1498 1496 1495 1493 1492 1490 1489 1488 1487 1485 1484 1483 1481 1479 1478 1476 1474 1473 1471 1469 1467 1466 1464 1462 1460 1458 1456 1454 1451 1449 1447 1445 1442 1439 1437 1435 1433 1430 1427 1425 1422 1419 1417 1414 1411 1408 1406 1403 1400 1397 1394 1392 1389 1386
1511 1512 1513 1513 1514 1515 1515 1515 1515 1515 1515 1515 1515 1515 1515 1514 1514 1513 1513 1513 1512 1511 1510 1509 1508 1506 1505 1503 1501 1500 1498 1497 1495 1494 1492 1491 1490 1489 1487 1486 1485 1484 1482 1481 1479 1477 1476 1474 1472 1470 1468 1466 1465 1463 1461 1459 1457 1455 1453 1451 1448 1446 1444 1441 1439 1436 1434 1432 1429 1426 1424 1421 1418 1416 1413 1410 1407 1404 1402 1399 1396 1393 1390 1387 1384
1508 1509 1510 1510 1511 1512 1513 1513 1513 1512 1513 1513 1513 1513 1513 1512 1512 1512 1512 1511 1511 1510 1509 1508 1506 1505 1503 1502 1500 1499 1498 1496 1495 1494 1492 1491 1490 1488 1487 1485 1484 1483 1481 1480 1478 1476 1475 1473 1471 1469 1467 1465 1464 1462 1460 1458 1456 1454 1452 1449 1447 1445 1442 1440 1438 1435 1433 1431 1428 1425 1423 1420 1417 1415 1412 1409 1406 1403 1401 1398 1395 1392 1389 1386 1383
1506 1506 1507 1508 1509 1509 1510 1511 1511 1510 1511 1511 1511 1511 1511 1510 1510 1510 1510 1510 1509 1508 1507 1506 1504 1502 1501 1500 1499 1498 1497 1496 1494 1493 1492 1490 1489 1487 1486 1484 1483 1481 1480 1478 1477 1475 1474 1472 1470 1469 1467 1465 1463 1461 1459 1457 1454 1452 1450 1448 1446 1443 1441 1439 1437 1434 1432 1430 1427 1424 1422 1419 1416 1413 1410 1408 1405 1403 1399 1396 1394 1391 1388 1385 1382
1503 1504 1504 1505 1506 1507 1507 1508 1508 1508 1509 1509 1509 1509 1509 1508 1508 1508 1508 1507 1507 1506 1505 1504 1502 1500 1499 1498 1497 1496 1495 1494 1493 1492 1490 1489 1487 1486 1485 1483 1482 1480 1479 1477 1476 1474 1473 1471 1469 1468 1466 1464 1462 1460 1458 1456 1453 1451 1449 1447 1445 1443 1440 1438 1436 1433 1431 1428 1426 1423 1420 1417 1414 1412 1409 1406 1404 1401 1398 1395 1393 1390 1387 1384 1381
1501 1501 1502 1503 1504 1505 1505 1505 1505 1505 1506 1506 1506 1507 1507 1506 1506 1506 1505 1505 1504 1504 1503 1502 1500 1498 1496 1496 1495 1494 1493 1493 1492 1491 1489 1488 1486 1485 1483 1482 1480 1479 1477 1476 1474 1473 1471 1470 1468 1466 1465 1463 1461 1459 1457 1454 1452 1450 1448 1446 1444 1441 1439 1437 1434 1432 1429 1427 1424 1422 1419 1416 1413 1410 1408 1405 1402 1399 1397 1394 1391 1389 1386 1383 1380
1497 1499 1499 1500 1501 1502 1503 1503 1503 1503 1503 1503 1504 1504 1504 1504 1504 1503 1503 1502 1502 1501 1501 1500 1498 1496 1494 1494 1493 1493 1492 1491 1490 1489 1488 1486 1485 1483 1482 1480 1479 1477 1476 1474 1473 1471 1470 1468 1467 1465 1463 1461 1459 1458 1456 1454 1452 1449 1447 1445 1443 1440 1438 1435 1433 1430 1427 1425 1423 1420 1418 1415 1412 1409 1406 1403 1400 1398 1395 1393 1390 1387 1384 1381 1378
1494 1496 1497 1497 1498 1499 1500 1500 1501 1501 1501 1501 1501 1501 1501 1501 1501 1501 1501 1500 1499 1499 1498 1498 1497 1495 1493 1492 1491 1490 1490 1489 1488 1487 1486 1485 1483 1482 1481 1479 1478 1476 1474 1473 1471 1470 1468 1467 1465 1464 1462 1460 1458 1456 1455 1453 1451 1448 1446 1444 1442 1439 1437 1434 1431 1429 1426 1423 1421 1418 1416 1413 1411 1408 1405 1402 1399 1396 1394 1391 1388 1385 1382 1379 1376
1491 1493 1494 1495 1496 1497 1497 1498 1498 1498 1498 1498 1498 1498 1498 1499 1499 1499 1498 1498 1497 1497 1496 1495 1494 1493 1492 1491 1490 1489 1488 1488 1487 1486 1485 1483 1482 1480 1479 1477 1476 1474 1473 1471 1470 1469 1467 1466 1464 1462 1461 1459 1457 1455 1454 1452 1450 1448 1445 1443 1441 1438 1436 1433 1430 1428 1426 1423 1420 1417 1414 1412 1410 1407 1404 1401 1398 1396 1393 1390 1387 1384 1381 1378 1375
1488 1490 1491 1492 1493 1494 1495 1495 1495 1495 1495 1496 1496 1496 1496 1497 1497 1496 1496 1495 1495 1495 1494 1493 1492 1491 1490 1490 1489 1487 1487 1486 1485 1484 1483 1482 1480 1479 1477 1476 1475 1473 1471 1470 1468 1467 1465 1464 1462 1461 1459 1457 1456 1454 1452 1450 1449 1447 1444 1442 1440 1437 1435 1432 1430 1427 1425 1422 1419 1416 1414 1411 1409 1406 1403 1400 1398 1395 1392 1389 1386 1383 1380 1377 1374
1485 1486 1488 1489 1490 1491 1492 1492 1492 1492 1493 1493 1494 1494 1494 1494 1494 1494 1493 1493 1492 1492 1492 1491 1491 1490 1488 1488 1487 1486 1485 1484 1483 1482 1481 1480 1478 1477 1476 1474 1473 1471 1470 1468 1467 1465 1464 1462 1461 1459 1458 1456 1454 1453 1451 1449 1447 1446 1443 1441 1439 1436 1434 1431 1429 1426 1424 1421 1419 1416 1413 1410 1408 1405 1402 1400 1397 1394 1392 1389 1386 1383 1380 1376 1373
1481 1483 1485 1486 1487 1488 1488 1489 1489 1489 1490 1491 1491 1491 1491 1492 1491 1491 1490 1490 1490 1489 1489 1489 1488 1487 1486 1486 1485 1484 1483 1482 1481 1480 1479 1478 1476 1475 1474 1473 1471 1470 1468 1467 1465 1464 1462 1461 1459 1457 1456 1454 1453 1451 1450 1448 1446 1444 1442 1440 1438 1436 1433 1431 1428 1425 1423 1421 1418 1415 1413 1410 1407 1404 1402 1399 1397 1394 1391 1388 1385 1382 1379 1376 1373
1478 1479 1481 1482 1483 1484 1485 1485 1486 1486 1487 1488 1488 1488 1488 1488 1489 1488 1488 1488 1487 1487 1487 1486 1486 1485 1484 1484 1483 1482 1481 1480 1479 1479 1478 1476 1475 1474 1472 1471 1469 1468 1467 1465 1464 1462 1461 1459 1458 1456 1454 1453 1451 1450 1448 1447 1445 1443 1441 1439 1437 1435 1433 1430 1428 1425 1422 1420 1417 1415 1412 1410 1407 1404 1402 1399 1397 1394 1391 1388 1385 1381 1378 1375 1372
1474 1475 1477 1478 1480 1481 1482 1482 1483 1483 1484 1485 1485 1485 1485 1486 1486 1486 1486 1485 1485 1484 1484 1484 1483 1483 1482 1481 1480 1480 1479 1478 1478 1477 1476 1475 1473 1472 1471 1469 1468 1466 1465 1464 1462 1461 1459 1457 1456 1454 1453 1451 1450 1448 1447 1445 1443 1442 1440 1438 1436 1434 1431 1429 1427 1424 1422 1419 1416 1414 1412 1409 1406 1404 1402 1399 1396 1393 1391 1388 1384 1381 1378 1375 1372
1470 1472 1473 1475 1476 1477 1478 1479 1479 1480 1481 1481 1482 1483 1483 1483 1483 1483 1483 1482 1482 1482 1481 1481 1481 1480 1480 1479 1478 1477 1477 1476 1475 1474 1474 1472 1471 1470 1469 1467 1466 1465 1463 1462 1460 1459 1458 1456 1454 1453 1451 1450 1448 1447 1445 1444 1442 1440 1438 1437 1435 1432 1430 1428 1426 1424 1421 1418 1416 1413 1411 1408 1406 1404 1401 1399 1396 1393 1390 1387 1384 1381 1377 1374 1371